Simultaneous Nadir Overpasses (SNOs) Predictions

Prediction of SNOs between LANDSAT-8 and METOP-A Satellite Orbit:

Table of predicted SNOs for the next 14.0 days since TLE Epoch: 10/26/2016
Index Date (LANDSAT-8) Time (LANDSAT-8) Lat,Lon (LANDSAT-8) SZA (LANDSAT-8 ) Date (METOP-A) Time (METOP-A) Lat,Lon (METOP-A) SZA (METOP-A ) Distance(km) Time Diff (sec)
1 10/27/2016 10:55:44 81.12, 55.91 96.50 10/27/2016 10:55:03 81.11, 55.83 96.48 1.51 41
2 10/27/2016 11:45:10 -81.14,-136.16 83.45 10/27/2016 11:45:42 -81.14,-136.16 83.43 0.19 32
3 10/30/2016 06:29:58 81.13, 122.49 97.46 10/30/2016 06:29:23 81.13, 122.67 97.46 3.02 35
4 10/30/2016 07:19:24 -81.15, -69.55 82.49 10/30/2016 07:20:03 -81.14, -69.66 82.49 1.96 39
5 11/02/2016 02:04:13 81.13,-170.99 98.37 11/02/2016 02:03:45 81.13,-170.90 98.36 1.55 28
6
